This is the latest recevied weather packets stored in our database for station/object CA3SQH-10. If no packets are shown the sender has not sent any weather packets the latest 10 day(s).
| Time | Temp. | Humidity | Pressure | Rain* | Wind** | Luminosity | Snow |
|---|---|---|---|---|---|---|---|
| 1777859280 | 18.33° C | 45% | 940 hPa | - | - | - | - |
| 1777858379 | 18.33° C | 44% | 940 hPa | - | - | - | - |
| 1777857479 | 18.33° C | 46% | 939.8 hPa | - | - | - | - |
| 1777856579 | 18.33° C | 45% | 940 hPa | - | - | - | - |
| 1777855679 | 18.89° C | 40% | 939.9 hPa | - | - | - | - |
| 1777854779 | 18.89° C | 41% | 939.8 hPa | - | - | - | - |
| 1777853878 | 18.89° C | 40% | 939.9 hPa | - | - | - | - |
| 1777852978 | 18.89° C | 40% | 939.8 hPa | - | - | - | - |
| 1777852078 | 18.89° C | 39% | 940 hPa | - | - | - | - |
| 1777851178 | 19.44° C | 38% | 939.8 hPa | - | - | - | - |
| 1777850278 | 20° C | 37% | 939.8 hPa | - | - | - | - |
| 1777849377 | 20° C | 36% | 939.7 hPa | - | - | - | - |
| 1777848477 | 20.56° C | 36% | 939.6 hPa | - | - | - | - |
| 1777847576 | 20.56° C | 35% | 939.5 hPa | - | - | - | - |
| 1777846675 | 21.11° C | 34% | 939.5 hPa | - | - | - | - |
| 1777845824 | 21.11° C | 34% | 939.3 hPa | - | - | - | - |
| 1777845804 | 21.11° C | 34% | 939.3 hPa | - | - | - | - |
| 1777844904 | 21.67° C | 36% | 939.2 hPa | - | - | - | - |
| 1777844003 | 21.67° C | 38% | 939.1 hPa | - | - | - | - |
| 1777843103 | 21.67° C | 37% | 938.9 hPa | - | - | - | - |
| 1777842199 | 22.22° C | 35% | 939.1 hPa | - | - | - | - |
| 1777841299 | 22.78° C | 36% | 938.9 hPa | - | - | - | - |
| 1777840399 | 23.33° C | 36% | 938.8 hPa | - | - | - | - |
| 1777839498 | 23.33° C | 38% | 938.9 hPa | - | - | - | - |
| 1777838598 | 23.89° C | 39% | 938.7 hPa | - | - | - | - |
* Rain since midnight (hover to see other rain measurements)
** Current wind speed in m/s (hover to see current wind gust speed)